Hourly Weather Ludwikow

Today, 17 May, Monday

Time Temperature Precipitation Wind Pressure Humidity
00:00 +9°C° 0 mm 2 mps 745 mmHg 92%
01:00 +9°C° 0 mm 2 mps 745 mmHg 92%
02:00 +8°C° 0 mm 2 mps 745 mmHg 92%
03:00 +8°C° 0 mm 2 mps 745 mmHg 91%
04:00 +8°C° 0 mm 2 mps 745 mmHg 91%
05:00 +10°C° 0 mm 2 mps 745 mmHg 87%
06:00 +12°C° 0 mm 2 mps 745 mmHg 83%
07:00 +13°C° 0 mm 3 mps 745 mmHg 79%
08:00 +16°C° 0 mm 3 mps 745 mmHg 73%
09:00 +17°C° 0 mm 3 mps 745 mmHg 67%
10:00 +19°C° 0 mm 3 mps 745 mmHg 61%
11:00 +19°C° 0.3 mm 3 mps 745 mmHg 61%
12:00 +19°C° 0.3 mm 3 mps 745 mmHg 61%
13:00 +19°C° 0.3 mm 3 mps 744 mmHg 61%
14:00 +18°C° 0.7 mm 3 mps 744 mmHg 67%
15:00 +17°C° 0.7 mm 3 mps 744 mmHg 74%
16:00 +17°C° 0.7 mm 3 mps 744 mmHg 80%
17:00 +14°C° 0.5 mm 3 mps 744 mmHg 85%
18:00 +13°C° 0.5 mm 3 mps 744 mmHg 89%
19:00 +12°C° 0.5 mm 4 mps 745 mmHg 94%
20:00 +12°C° 0.3 mm 3 mps 745 mmHg 95%
21:00 +11°C° 0.3 mm 3 mps 745 mmHg 96%
22:00 +11°C° 0.3 mm 3 mps 745 mmHg 96%
23:00 +11°C° 0.9 mm 3 mps 745 mmHg 97%

Tomorrow, 18 May, Tuesday

Time Temperature Precipitation Wind Pressure Humidity
00:00 +11°C° 0.9 mm 3 mps 745 mmHg 97%
01:00 +11°C° 0.9 mm 3 mps 745 mmHg 97%
02:00 +10°C° 1.1 mm 3 mps 745 mmHg 97%
03:00 +10°C° 1.1 mm 3 mps 745 mmHg 97%
04:00 +10°C° 1.1 mm 2 mps 745 mmHg 97%
05:00 +10°C° 0.3 mm 3 mps 745 mmHg 97%
06:00 +11°C° 0.3 mm 3 mps 746 mmHg 96%
07:00 +11°C° 0.3 mm 3 mps 746 mmHg 95%
08:00 +11°C° 0.1 mm 3 mps 746 mmHg 93%
09:00 +12°C° 0.1 mm 3 mps 746 mmHg 91%
10:00 +12°C° 0.1 mm 3 mps 746 mmHg 90%
11:00 +12°C° 0.2 mm 4 mps 746 mmHg 89%
12:00 +13°C° 0.2 mm 4 mps 747 mmHg 87%
13:00 +13°C° 0.2 mm 4 mps 747 mmHg 86%
14:00 +13°C° 0.3 mm 4 mps 747 mmHg 87%
15:00 +13°C° 0.3 mm 4 mps 747 mmHg 87%
16:00 +13°C° 0.3 mm 4 mps 747 mmHg 88%
17:00 +12°C° 0.1 mm 3 mps 747 mmHg 89%
18:00 +12°C° 0.1 mm 3 mps 747 mmHg 89%
19:00 +13°C° 0.1 mm 2 mps 748 mmHg 90%
20:00 +12°C° 0 mm 2 mps 748 mmHg 91%
21:00 +12°C° 0 mm 2 mps 748 mmHg 93%
22:00 +10°C° 0 mm 2 mps 748 mmHg 94%
23:00 +10°C° 0 mm 2 mps 748 mmHg 95%

Day after tomorrow, 19 May, Wednesday

Time Temperature Precipitation Wind Pressure Humidity
00:00 +9°C° 0 mm 2 mps 748 mmHg 95%
01:00 +9°C° 0 mm 2 mps 748 mmHg 96%
02:00 +9°C° 0.2 mm 2 mps 749 mmHg 96%
03:00 +8°C° 0.2 mm 2 mps 749 mmHg 97%
04:00 +8°C° 0.2 mm 2 mps 749 mmHg 97%
05:00 +9°C° 0 mm 3 mps 749 mmHg 94%
06:00 +10°C° 0 mm 3 mps 750 mmHg 91%
07:00 +11°C° 0 mm 4 mps 750 mmHg 88%
08:00 +12°C° 0 mm 4 mps 750 mmHg 81%
09:00 +14°C° 0 mm 4 mps 750 mmHg 74%
10:00 +15°C° 0 mm 4 mps 750 mmHg 67%
11:00 +15°C° 0.1 mm 4 mps 750 mmHg 67%
12:00 +15°C° 0.1 mm 4 mps 750 mmHg 66%
13:00 +15°C° 0.1 mm 5 mps 750 mmHg 66%
14:00 +15°C° 0.2 mm 5 mps 750 mmHg 66%
15:00 +15°C° 0.2 mm 5 mps 750 mmHg 67%
16:00 +15°C° 0.2 mm 5 mps 750 mmHg 67%
17:00 +14°C° 0.2 mm 4 mps 750 mmHg 74%
18:00 +13°C° 0.2 mm 3 mps 751 mmHg 81%
19:00 +11°C° 0.2 mm 3 mps 751 mmHg 88%
20:00 +10°C° 0.1 mm 3 mps 751 mmHg 90%
21:00 +10°C° 0.1 mm 3 mps 751 mmHg 91%
22:00 +9°C° 0.1 mm 3 mps 751 mmHg 93%
23:00 +8°C° 0 mm 3 mps 751 mmHg 94%

20 May, Thursday

Time Temperature Precipitation Wind Pressure Humidity
00:00 +7°C° 0 mm 3 mps 752 mmHg 94%
01:00 +7°C° 0 mm 3 mps 752 mmHg 94%
02:00 +5°C° 0 mm 3 mps 752 mmHg 94%
03:00 +5°C° 0 mm 3 mps 752 mmHg 95%
04:00 +5°C° 0 mm 3 mps 752 mmHg 95%
05:00 +7°C° 0 mm 3 mps 752 mmHg 90%
06:00 +7°C° 0 mm 4 mps 753 mmHg 85%
07:00 +9°C° 0 mm 5 mps 753 mmHg 81%
08:00 +10°C° 0 mm 5 mps 753 mmHg 74%
09:00 +13°C° 0 mm 6 mps 753 mmHg 67%
10:00 +14°C° 0 mm 6 mps 753 mmHg 61%
11:00 +15°C° 0 mm 6 mps 752 mmHg 58%
12:00 +16°C° 0 mm 6 mps 752 mmHg 54%
13:00 +16°C° 0 mm 6 mps 752 mmHg 51%
14:00 +16°C° 0 mm 6 mps 752 mmHg 56%
15:00 +15°C° 0 mm 6 mps 752 mmHg 60%
16:00 +14°C° 0 mm 6 mps 752 mmHg 65%
17:00 +13°C° 0.1 mm 5 mps 752 mmHg 69%
18:00 +12°C° 0.1 mm 5 mps 753 mmHg 73%
19:00 +11°C° 0.1 mm 4 mps 753 mmHg 78%
20:00 +10°C° 0 mm 4 mps 753 mmHg 78%
21:00 +8°C° 0 mm 4 mps 754 mmHg 79%
22:00 +6°C° 0 mm 4 mps 754 mmHg 80%
23:00 +6°C° 0 mm 4 mps 754 mmHg 82%

21 May, Friday

Time Temperature Precipitation Wind Pressure Humidity
00:00 +5°C° 0 mm 4 mps 754 mmHg 84%
01:00 +5°C° 0 mm 5 mps 754 mmHg 86%
02:00 +4°C° 0 mm 4 mps 754 mmHg 87%
03:00 +4°C° 0 mm 4 mps 754 mmHg 88%
04:00 +3°C° 0 mm 4 mps 754 mmHg 89%
05:00 +5°C° 0 mm 5 mps 754 mmHg 83%
06:00 +6°C° 0 mm 5 mps 755 mmHg 76%
07:00 +7°C° 0 mm 6 mps 755 mmHg 70%
08:00 +8°C° 0 mm 6 mps 755 mmHg 65%
09:00 +10°C° 0 mm 6 mps 754 mmHg 59%
10:00 +11°C° 0 mm 6 mps 754 mmHg 54%
11:00 +11°C° 0 mm 6 mps 754 mmHg 52%
12:00 +13°C° 0 mm 6 mps 754 mmHg 51%
13:00 +14°C° 0 mm 6 mps 754 mmHg 49%
14:00 +14°C° 0 mm 6 mps 754 mmHg 53%
15:00 +13°C° 0 mm 6 mps 753 mmHg 56%
16:00 +13°C° 0 mm 5 mps 753 mmHg 59%
17:00 +12°C° 0 mm 4 mps 753 mmHg 65%
18:00 +11°C° 0 mm 3 mps 753 mmHg 70%
19:00 +12°C° 0 mm 2 mps 753 mmHg 76%
20:00 +10°C° 0 mm 2 mps 753 mmHg 78%
21:00 +9°C° 0 mm 2 mps 753 mmHg 79%
22:00 +9°C° 0 mm 2 mps 753 mmHg 81%
23:00 +9°C° 0.2 mm 2 mps 752 mmHg 84%

22 May, Saturday

Time Temperature Precipitation Wind Pressure Humidity
00:00 +9°C° 0.2 mm 3 mps 752 mmHg 87%
01:00 +9°C° 0.2 mm 3 mps 752 mmHg 90%
02:00 +9°C° 0.5 mm 2 mps 751 mmHg 92%
03:00 +9°C° 0.5 mm 2 mps 751 mmHg 93%
04:00 +9°C° 0.5 mm 2 mps 751 mmHg 95%
05:00 +10°C° 0.1 mm 3 mps 751 mmHg 91%
06:00 +11°C° 0.1 mm 3 mps 750 mmHg 88%
07:00 +12°C° 0.1 mm 4 mps 750 mmHg 84%
08:00 +14°C° 0 mm 4 mps 750 mmHg 76%
09:00 +15°C° 0 mm 5 mps 750 mmHg 67%
10:00 +17°C° 0 mm 6 mps 750 mmHg 58%
11:00 +19°C° 0 mm 6 mps 750 mmHg 57%
12:00 +20°C° 0 mm 6 mps 750 mmHg 56%
13:00 +20°C° 0 mm 6 mps 749 mmHg 55%
14:00 +19°C° 0.3 mm 6 mps 749 mmHg 62%
15:00 +17°C° 0.3 mm 5 mps 749 mmHg 69%
16:00 +16°C° 0.3 mm 5 mps 749 mmHg 77%
17:00 +15°C° 0.7 mm 4 mps 750 mmHg 82%
18:00 +14°C° 0.7 mm 4 mps 750 mmHg 87%
19:00 +13°C° 0.7 mm 3 mps 750 mmHg 92%
20:00 +12°C° 0.1 mm 3 mps 750 mmHg 93%
21:00 +13°C° 0.1 mm 2 mps 751 mmHg 93%
22:00 +12°C° 0.1 mm 2 mps 751 mmHg 94%
23:00 +12°C° 0.3 mm 2 mps 751 mmHg 94%
Show more

We Need Your Consent

Meteoprog and our Service Providers may store and access personal data such as cookies, device identifiers or other similar technologies on your device and process such data to personalise content and ads, as well as provide social media features and to analyse the traffic.

  • Store and/or access information on your device

    Cookies, device identifiers or other information can be stored or accessed on your device for the purposes indicated above.

  • Personalised ads and content, ad and content measurement, audience insights, and products development

    Ads and content can be personalised based on a profile. More data can be added to better personalise ads and content. Ad and content performance can be measured. Insights about the audience who saw the ads and content can be derived. Such data can be used to develop or improve user’s experience, systems and software.

By clicking ‘I Agree’ you will allow the use of indicated cookies, device identifiers, web beacons or other similar technologies. Your settings can be changed in the browser on your device.

For certain purposes, legitimate interests may be relied on, rather than consent. You can read more about this in our Privacy and Cookie Policy.